YV203A SVBM-MRLB

Flight info

Callsign YV203A
Flight time 2h 46m
Altitude 43000
Route ATEXA1 KOKRY DCT CTG UL335 BOGAL DCT BDT UG440 ISEBA DCT SELAK SELAK1V
Aircraft E55P/M-SBDFGHJ2RWY/LB2

Departure

Time 2026-04-22 13:28
Airport Jacinto Lara International Airport (SVBM)

Arrival

Time 2026-04-22 16:14
Airport Daniel Oduber Quirós International Airport (MRLB)
Time Latitude Longitude Altitude Speed Heading
2026-04-22 13:18 10.04451 -69.35854 2040 ft 1 kts 337°
2026-04-22 13:18 10.04442 -69.35843 2039 ft 2 kts 280°
2026-04-22 13:18 10.04442 -69.35835 2039 ft 0 kts 260°
2026-04-22 13:20 10.04441 -69.35839 2039 ft 1 kts 260°
2026-04-22 13:20 10.04439 -69.35850 2040 ft 2 kts 256°
2026-04-22 13:20 10.04430 -69.35875 2041 ft 5 kts 259°
2026-04-22 13:21 10.04423 -69.35925 2044 ft 9 kts 262°
2026-04-22 13:21 10.04412 -69.36007 2045 ft 15 kts 262°
2026-04-22 13:21 10.04393 -69.36136 2044 ft 21 kts 261°
2026-04-22 13:21 10.04367 -69.36301 2044 ft 26 kts 261°
2026-04-22 13:22 10.04336 -69.36498 2045 ft 30 kts 261°
2026-04-22 13:22 10.04305 -69.36698 2048 ft 21 kts 261°
2026-04-22 13:22 10.04281 -69.36857 2054 ft 23 kts 262°
2026-04-22 13:22 10.04254 -69.37033 2053 ft 26 kts 261°
2026-04-22 13:23 10.04196 -69.37128 2051 ft 17 kts 171°
2026-04-22 13:23 10.04152 -69.37122 2051 ft 0 kts 172°
2026-04-22 13:24 10.04150 -69.37121 2051 ft 0 kts 172°
2026-04-22 13:24 10.04147 -69.37121 2051 ft 0 kts 172°
2026-04-22 13:24 10.04144 -69.37120 2051 ft 0 kts 172°
2026-04-22 13:24 10.04140 -69.37120 2051 ft 0 kts 172°
2026-04-22 13:25 10.04134 -69.37119 2052 ft 1 kts 173°
2026-04-22 13:25 10.04115 -69.37116 2052 ft 3 kts 173°
2026-04-22 13:25 10.04084 -69.37104 2052 ft 6 kts 136°
2026-04-22 13:25 10.04071 -69.37057 2052 ft 8 kts 83°
2026-04-22 13:26 10.04077 -69.37019 2052 ft 0 kts 81°
2026-04-22 13:26 10.04077 -69.37016 2052 ft 0 kts 81°
2026-04-22 13:26 10.04078 -69.37014 2052 ft 0 kts 81°
2026-04-22 13:26 10.04078 -69.37013 2052 ft 0 kts 81°
2026-04-22 13:27 10.04078 -69.37010 2052 ft 0 kts 81°
2026-04-22 13:27 10.04100 -69.36870 2053 ft 51 kts 81°
2026-04-22 13:27 10.04189 -69.36285 2044 ft 114 kts 81°
2026-04-22 13:27 10.04328 -69.35350 2153 ft 148 kts 82°
2026-04-22 13:28 10.04486 -69.34306 2603 ft 152 kts 81°
2026-04-22 13:28 10.04650 -69.33221 3070 ft 162 kts 81°
2026-04-22 13:28 10.04839 -69.32027 3520 ft 185 kts 80°
2026-04-22 13:28 10.05384 -69.30818 4195 ft 195 kts 39°
2026-04-22 13:29 10.06598 -69.30395 5066 ft 195 kts 354°
2026-04-22 13:29 10.07754 -69.30983 5893 ft 194 kts 310°
2026-04-22 13:29 10.08462 -69.32149 6615 ft 197 kts 300°
2026-04-22 13:29 10.09102 -69.33382 7343 ft 200 kts 298°
2026-04-22 13:30 10.09705 -69.34647 8055 ft 203 kts 297°
2026-04-22 13:30 10.10295 -69.35947 8757 ft 206 kts 296°
2026-04-22 13:30 10.10877 -69.37271 9448 ft 209 kts 295°
2026-04-22 13:30 10.11459 -69.38622 10130 ft 212 kts 295°
2026-04-22 13:31 10.12044 -69.39992 10798 ft 216 kts 295°
2026-04-22 13:31 10.12645 -69.41410 11465 ft 219 kts 295°
2026-04-22 13:31 10.13238 -69.42812 12104 ft 222 kts 295°
2026-04-22 13:31 10.13851 -69.44267 12773 ft 224 kts 295°
2026-04-22 13:32 10.14460 -69.45715 13425 ft 226 kts 295°
2026-04-22 13:32 10.15077 -69.47182 14057 ft 229 kts 295°
2026-04-22 13:32 10.15697 -69.48657 14692 ft 231 kts 295°
2026-04-22 13:32 10.16330 -69.50164 15312 ft 233 kts 295°
2026-04-22 13:33 10.16964 -69.51672 15921 ft 235 kts 296°
2026-04-22 13:33 10.17602 -69.53191 16520 ft 237 kts 296°
2026-04-22 13:33 10.18252 -69.54737 17112 ft 239 kts 296°
2026-04-22 13:33 10.18899 -69.56279 17684 ft 242 kts 296°
2026-04-22 13:34 10.19569 -69.57869 17969 ft 258 kts 296°
2026-04-22 13:34 10.20321 -69.59652 18001 ft 285 kts 296°
2026-04-22 13:34 10.21124 -69.61566 18153 ft 306 kts 295°
2026-04-22 13:34 10.21955 -69.63549 18746 ft 310 kts 295°
2026-04-22 13:35 10.22809 -69.65588 19366 ft 312 kts 295°
2026-04-22 13:35 10.23651 -69.67602 19961 ft 315 kts 294°
2026-04-22 13:35 10.23988 -69.69793 20498 ft 323 kts 271°
2026-04-22 13:35 10.23990 -69.72072 21063 ft 326 kts 272°
2026-04-22 13:36 10.23994 -69.74380 21621 ft 328 kts 272°
2026-04-22 13:36 10.24001 -69.76714 22154 ft 331 kts 272°
2026-04-22 13:36 10.24007 -69.79037 22683 ft 333 kts 272°
2026-04-22 13:36 10.24015 -69.81378 23202 ft 336 kts 272°
2026-04-22 13:37 10.24021 -69.83746 23690 ft 338 kts 272°
2026-04-22 13:37 10.24029 -69.86134 24191 ft 341 kts 273°
2026-04-22 13:37 10.24038 -69.88621 24215 ft 359 kts 272°
2026-04-22 13:37 10.24047 -69.91174 24227 ft 375 kts 272°
2026-04-22 13:38 10.24054 -69.93891 24298 ft 389 kts 272°
2026-04-22 13:38 10.24066 -69.99399 25314 ft 390 kts 272°
2026-04-22 13:38 10.24072 -70.02132 25848 ft 389 kts 272°
2026-04-22 13:39 10.24078 -70.04838 26373 ft 388 kts 273°
2026-04-22 13:39 10.24084 -70.07581 26901 ft 386 kts 273°
2026-04-22 13:39 10.24091 -70.10300 27421 ft 385 kts 273°
2026-04-22 13:39 10.24096 -70.12987 27918 ft 384 kts 273°
2026-04-22 13:40 10.24101 -70.15688 28402 ft 383 kts 273°
2026-04-22 13:40 10.24107 -70.18395 28885 ft 381 kts 273°
2026-04-22 13:40 10.24112 -70.21054 29359 ft 380 kts 273°
2026-04-22 13:40 10.24117 -70.23748 29820 ft 379 kts 274°
2026-04-22 13:41 10.24122 -70.26378 30261 ft 378 kts 274°
2026-04-22 13:41 10.24127 -70.29054 30698 ft 377 kts 274°
2026-04-22 13:41 10.24131 -70.31685 31137 ft 375 kts 274°
2026-04-22 13:41 10.24135 -70.34335 31549 ft 374 kts 274°
2026-04-22 13:42 10.24139 -70.36962 31950 ft 373 kts 274°
2026-04-22 13:42 10.24143 -70.39576 32356 ft 372 kts 274°
2026-04-22 13:42 10.24146 -70.42172 32733 ft 371 kts 274°
2026-04-22 13:42 10.24150 -70.44788 33112 ft 370 kts 274°
2026-04-22 13:43 10.24152 -70.47370 33497 ft 368 kts 274°
2026-04-22 13:43 10.24155 -70.49991 33851 ft 368 kts 274°
2026-04-22 13:43 10.24158 -70.52575 34211 ft 366 kts 274°
2026-04-22 13:43 10.24160 -70.55119 34535 ft 366 kts 274°
2026-04-22 13:44 10.24163 -70.57714 34858 ft 365 kts 274°
2026-04-22 13:44 10.24165 -70.60294 35174 ft 365 kts 274°
2026-04-22 13:44 10.24166 -70.62859 35486 ft 364 kts 274°
2026-04-22 13:44 10.24168 -70.65409 35777 ft 364 kts 274°
2026-04-22 13:45 10.24169 -70.67985 36065 ft 364 kts 274°
2026-04-22 13:45 10.24170 -70.70539 36346 ft 363 kts 274°
2026-04-22 13:45 10.24171 -70.73090 36608 ft 363 kts 274°
2026-04-22 13:45 10.24172 -70.75642 36863 ft 363 kts 274°
2026-04-22 13:46 10.24172 -70.78189 37094 ft 364 kts 274°
2026-04-22 13:46 10.24173 -70.80741 37339 ft 363 kts 274°
2026-04-22 13:46 10.24175 -70.83334 37538 ft 364 kts 274°
2026-04-22 13:46 10.24176 -70.85890 37721 ft 366 kts 274°
2026-04-22 13:47 10.24176 -70.88453 37921 ft 366 kts 273°
2026-04-22 13:47 10.24176 -70.91049 38102 ft 368 kts 273°
2026-04-22 13:47 10.24175 -70.93648 38298 ft 368 kts 273°
2026-04-22 13:47 10.24175 -70.96224 38481 ft 369 kts 273°
2026-04-22 13:48 10.24174 -70.98840 38668 ft 369 kts 272°
2026-04-22 13:48 10.24173 -71.01424 38850 ft 369 kts 272°
2026-04-22 13:48 10.24171 -71.04015 38979 ft 371 kts 272°
2026-04-22 13:48 10.24168 -71.06647 39000 ft 377 kts 272°
2026-04-22 13:49 10.24162 -71.12037 39004 ft 388 kts 272°
2026-04-22 13:49 10.24156 -71.17609 39004 ft 399 kts 272°
2026-04-22 13:50 10.24149 -71.23275 39004 ft 410 kts 272°
2026-04-22 13:50 10.24141 -71.29131 39004 ft 421 kts 272°
2026-04-22 13:51 10.24132 -71.35152 39014 ft 431 kts 272°
2026-04-22 13:51 10.24122 -71.41256 39025 ft 438 kts 272°
2026-04-22 13:52 10.24110 -71.47452 39037 ft 440 kts 272°
2026-04-22 13:52 10.24097 -71.53683 39048 ft 441 kts 272°
2026-04-22 13:53 10.24083 -71.59862 39049 ft 440 kts 272°
2026-04-22 13:53 10.24067 -71.66069 39048 ft 438 kts 271°
2026-04-22 13:54 10.24051 -71.72224 39047 ft 437 kts 271°
2026-04-22 13:54 10.24034 -71.78336 39047 ft 436 kts 271°
2026-04-22 13:55 10.24015 -71.84479 39048 ft 436 kts 271°
2026-04-22 13:55 10.23996 -71.90633 39048 ft 437 kts 271°
2026-04-22 13:56 10.23975 -71.96813 39048 ft 439 kts 271°
2026-04-22 13:56 10.23953 -72.03007 39048 ft 440 kts 271°
2026-04-22 13:57 10.23930 -72.09160 39048 ft 439 kts 271°
2026-04-22 13:57 10.23905 -72.15375 39048 ft 438 kts 271°
2026-04-22 13:58 10.23879 -72.21513 39048 ft 438 kts 271°
2026-04-22 13:58 10.23853 -72.27664 39048 ft 437 kts 271°
2026-04-22 13:59 10.23825 -72.33811 39049 ft 437 kts 271°
2026-04-22 13:59 10.23796 -72.39969 39049 ft 438 kts 271°
2026-04-22 14:00 10.23766 -72.46137 39049 ft 438 kts 271°
2026-04-22 14:00 10.23735 -72.52327 39049 ft 439 kts 271°
2026-04-22 14:01 10.23702 -72.58486 39049 ft 439 kts 271°
2026-04-22 14:01 10.23668 -72.64681 39049 ft 438 kts 271°
2026-04-22 14:02 10.23633 -72.70864 39047 ft 438 kts 271°
2026-04-22 14:02 10.23597 -72.76997 39047 ft 438 kts 271°
2026-04-22 14:03 10.23560 -72.83182 39047 ft 438 kts 271°
2026-04-22 14:03 10.23522 -72.89337 39048 ft 438 kts 271°
2026-04-22 14:04 10.23483 -72.95496 38998 ft 439 kts 271°
2026-04-22 14:04 10.23447 -73.01708 38993 ft 439 kts 271°
2026-04-22 14:05 10.23408 -73.07867 38993 ft 440 kts 270°
2026-04-22 14:06 10.23341 -73.17170 38994 ft 441 kts 269°
2026-04-22 14:06 10.23293 -73.23397 38993 ft 439 kts 269°
2026-04-22 14:07 10.23245 -73.29549 38993 ft 437 kts 269°
2026-04-22 14:07 10.23197 -73.35699 38993 ft 435 kts 269°
2026-04-22 14:08 10.23150 -73.41773 38993 ft 434 kts 269°
2026-04-22 14:08 10.23101 -73.47906 38994 ft 434 kts 269°
2026-04-22 14:09 10.23051 -73.54008 38994 ft 436 kts 269°
2026-04-22 14:09 10.22999 -73.60178 38994 ft 438 kts 269°
2026-04-22 14:10 10.22946 -73.66328 38993 ft 439 kts 269°
2026-04-22 14:10 10.22892 -73.72516 38992 ft 438 kts 269°
2026-04-22 14:11 10.22837 -73.78700 38992 ft 437 kts 269°
2026-04-22 14:11 10.22781 -73.84808 38992 ft 436 kts 269°
2026-04-22 14:12 10.22724 -73.90947 38992 ft 435 kts 269°
2026-04-22 14:12 10.22666 -73.97097 38993 ft 435 kts 269°
2026-04-22 14:13 10.22606 -74.03211 38993 ft 436 kts 269°
2026-04-22 14:13 10.22546 -74.09341 38993 ft 437 kts 269°
2026-04-22 14:14 10.22484 -74.15496 38993 ft 438 kts 269°
2026-04-22 14:14 10.22421 -74.21672 38993 ft 438 kts 269°
2026-04-22 14:15 10.22356 -74.27842 38993 ft 437 kts 269°
2026-04-22 14:15 10.22291 -74.33981 38993 ft 436 kts 269°
2026-04-22 14:16 10.22225 -74.40109 38993 ft 436 kts 269°
2026-04-22 14:16 10.22157 -74.46256 38993 ft 436 kts 269°
2026-04-22 14:17 10.22089 -74.52383 38994 ft 436 kts 269°
2026-04-22 14:17 10.22019 -74.58531 38994 ft 437 kts 269°
2026-04-22 14:18 10.21948 -74.64698 38994 ft 437 kts 269°
2026-04-22 14:18 10.21876 -74.70824 38991 ft 437 kts 269°
2026-04-22 14:19 10.21802 -74.76988 38990 ft 437 kts 269°
2026-04-22 14:19 10.21727 -74.83143 38989 ft 437 kts 269°
2026-04-22 14:20 10.21612 -74.92358 38986 ft 436 kts 269°
2026-04-22 14:20 10.21533 -74.98480 38980 ft 437 kts 269°
2026-04-22 14:21 10.21415 -75.07714 38972 ft 437 kts 270°
2026-04-22 14:22 10.21295 -75.16969 38966 ft 435 kts 270°
2026-04-22 14:23 10.21174 -75.26135 38966 ft 433 kts 270°
2026-04-22 14:23 10.21091 -75.32218 38966 ft 433 kts 270°
2026-04-22 14:24 10.21007 -75.38309 38967 ft 433 kts 270°
2026-04-22 14:24 10.20922 -75.44434 38967 ft 435 kts 270°
2026-04-22 14:25 10.20722 -75.50526 38948 ft 436 kts 260°
2026-04-22 14:25 10.18899 -75.56388 38968 ft 437 kts 252°
2026-04-22 14:26 10.16978 -75.62220 38967 ft 437 kts 252°
2026-04-22 14:26 10.15048 -75.68045 38966 ft 437 kts 252°
2026-04-22 14:27 10.13108 -75.73887 38966 ft 436 kts 252°
2026-04-22 14:27 10.11185 -75.79673 38966 ft 436 kts 252°
2026-04-22 14:28 10.09255 -75.85474 38966 ft 435 kts 252°
2026-04-22 14:28 10.07315 -75.91302 38966 ft 435 kts 252°
2026-04-22 14:29 10.05387 -75.97089 38966 ft 436 kts 252°
2026-04-22 14:29 10.03440 -76.02930 38967 ft 437 kts 252°
2026-04-22 14:30 10.01509 -76.08722 38967 ft 437 kts 252°
2026-04-22 14:30 9.99569 -76.14534 38967 ft 437 kts 252°
2026-04-22 14:31 9.97625 -76.20355 38967 ft 436 kts 252°
2026-04-22 14:31 9.95685 -76.26160 38967 ft 436 kts 252°
2026-04-22 14:32 9.93736 -76.31992 38967 ft 436 kts 252°
2026-04-22 14:32 9.91799 -76.37779 38967 ft 436 kts 252°
2026-04-22 14:33 9.89861 -76.43568 38968 ft 436 kts 252°
2026-04-22 14:33 9.87909 -76.49393 38970 ft 436 kts 252°
2026-04-22 14:34 9.85963 -76.55198 38974 ft 436 kts 252°
2026-04-22 14:34 9.84023 -76.60982 38979 ft 436 kts 252°
2026-04-22 14:35 9.82063 -76.66822 38981 ft 436 kts 251°
2026-04-22 14:35 9.80118 -76.72613 38984 ft 436 kts 251°
2026-04-22 14:36 9.78163 -76.78430 38987 ft 436 kts 251°
2026-04-22 14:36 9.76214 -76.84232 38991 ft 436 kts 251°
2026-04-22 14:37 9.74276 -76.89996 38993 ft 436 kts 251°
2026-04-22 14:37 9.72313 -76.95827 38993 ft 437 kts 251°
2026-04-22 14:38 9.70368 -77.01598 38993 ft 436 kts 250°
2026-04-22 14:38 9.68400 -77.07433 38993 ft 435 kts 250°
2026-04-22 14:39 9.66453 -77.13202 38993 ft 433 kts 250°
2026-04-22 14:39 9.64516 -77.18939 38993 ft 432 kts 250°
2026-04-22 14:40 9.61618 -77.27520 38993 ft 432 kts 250°
2026-04-22 14:40 9.59667 -77.33291 38994 ft 433 kts 250°
2026-04-22 14:41 9.57724 -77.39037 38994 ft 434 kts 250°
2026-04-22 14:41 9.56892 -77.41946 38978 ft 435 kts 262°
2026-04-22 14:41 9.56716 -77.45008 38996 ft 435 kts 267°
2026-04-22 14:42 9.56454 -77.51120 38994 ft 436 kts 267°
2026-04-22 14:42 9.56200 -77.57237 38994 ft 436 kts 267°
2026-04-22 14:43 9.55947 -77.63381 38994 ft 435 kts 267°
2026-04-22 14:43 9.55695 -77.69469 38992 ft 434 kts 267°
2026-04-22 14:44 9.55443 -77.75553 38992 ft 434 kts 267°
2026-04-22 14:44 9.55190 -77.81634 38993 ft 434 kts 267°
2026-04-22 14:45 9.54935 -77.87737 38993 ft 434 kts 267°
2026-04-22 14:45 9.54678 -77.93849 38993 ft 435 kts 267°
2026-04-22 14:46 9.54420 -77.99976 38993 ft 436 kts 267°
2026-04-22 14:46 9.54162 -78.06066 38993 ft 436 kts 267°
2026-04-22 14:47 9.53901 -78.12206 38993 ft 435 kts 267°
2026-04-22 14:47 9.53641 -78.18298 38993 ft 435 kts 267°
2026-04-22 14:48 9.53380 -78.24392 38993 ft 434 kts 267°
2026-04-22 14:48 9.53117 -78.30489 38993 ft 434 kts 267°
2026-04-22 14:49 9.52854 -78.36581 38993 ft 434 kts 267°
2026-04-22 14:49 9.52590 -78.42677 38993 ft 435 kts 267°
2026-04-22 14:50 9.52324 -78.48784 38994 ft 436 kts 267°
2026-04-22 14:50 9.52057 -78.54881 38993 ft 436 kts 267°
2026-04-22 14:51 9.51789 -78.60990 38993 ft 436 kts 267°
2026-04-22 14:51 9.51519 -78.67115 38992 ft 435 kts 267°
2026-04-22 14:52 9.51250 -78.73211 38992 ft 434 kts 267°
2026-04-22 14:52 9.50979 -78.79314 38992 ft 434 kts 267°
2026-04-22 14:53 9.50707 -78.85403 38993 ft 434 kts 267°
2026-04-22 14:53 9.50435 -78.91486 38993 ft 435 kts 267°
2026-04-22 14:54 9.50160 -78.97609 38993 ft 435 kts 267°
2026-04-22 14:54 9.49886 -79.03718 38993 ft 436 kts 266°
2026-04-22 14:55 9.49609 -79.09832 38993 ft 436 kts 266°
2026-04-22 14:55 9.49332 -79.15940 38993 ft 437 kts 266°
2026-04-22 14:56 9.49051 -79.22079 38993 ft 437 kts 266°
2026-04-22 14:56 9.48770 -79.28198 38993 ft 437 kts 266°
2026-04-22 14:57 9.48486 -79.34344 38993 ft 437 kts 266°
2026-04-22 14:57 9.48203 -79.40484 38993 ft 437 kts 266°
2026-04-22 14:58 9.47919 -79.46597 38994 ft 436 kts 266°
2026-04-22 14:58 9.47646 -79.52483 38994 ft 436 kts 266°
2026-04-22 14:59 9.47360 -79.58612 38994 ft 436 kts 266°
2026-04-22 14:59 9.47073 -79.64720 38994 ft 437 kts 266°
2026-04-22 15:00 9.46785 -79.70863 38992 ft 437 kts 266°
2026-04-22 15:00 9.46495 -79.76987 38992 ft 437 kts 266°
2026-04-22 15:01 9.46205 -79.83110 38992 ft 437 kts 266°
2026-04-22 15:01 9.45913 -79.89260 38992 ft 437 kts 266°
2026-04-22 15:02 9.45622 -79.95356 38993 ft 436 kts 266°
2026-04-22 15:02 9.45328 -80.01492 38993 ft 436 kts 266°
2026-04-22 15:03 9.45034 -80.07605 38993 ft 437 kts 266°
2026-04-22 15:03 9.44738 -80.13738 38993 ft 437 kts 266°
2026-04-22 15:04 9.44441 -80.19865 38993 ft 437 kts 266°
2026-04-22 15:04 9.44143 -80.25998 38993 ft 437 kts 266°
2026-04-22 15:05 9.43844 -80.32134 38993 ft 437 kts 266°
2026-04-22 15:05 9.43544 -80.38270 38993 ft 437 kts 266°
2026-04-22 15:06 9.43243 -80.44389 38993 ft 437 kts 266°
2026-04-22 15:06 9.42942 -80.50510 38994 ft 437 kts 266°
2026-04-22 15:07 9.42638 -80.56650 38994 ft 437 kts 266°
2026-04-22 15:07 9.42336 -80.62740 38994 ft 437 kts 266°
2026-04-22 15:08 9.42030 -80.68872 38992 ft 437 kts 265°
2026-04-22 15:08 9.41725 -80.74982 38992 ft 437 kts 265°
2026-04-22 15:09 9.41415 -80.81145 38992 ft 437 kts 265°
2026-04-22 15:09 9.41108 -80.87252 38992 ft 437 kts 265°
2026-04-22 15:10 9.40797 -80.93396 38993 ft 437 kts 266°
2026-04-22 15:10 9.40488 -80.99500 38995 ft 437 kts 266°
2026-04-22 15:11 9.40177 -81.05605 38997 ft 437 kts 266°
2026-04-22 15:11 9.39863 -81.11771 38999 ft 437 kts 266°
2026-04-22 15:12 9.39551 -81.17870 39000 ft 437 kts 266°
2026-04-22 15:12 9.39236 -81.23994 39000 ft 437 kts 266°
2026-04-22 15:13 9.38922 -81.30097 39000 ft 437 kts 266°
2026-04-22 15:13 9.38605 -81.36227 39000 ft 437 kts 266°
2026-04-22 15:14 9.38288 -81.42340 39000 ft 437 kts 266°
2026-04-22 15:14 9.37968 -81.48475 39000 ft 437 kts 266°
2026-04-22 15:15 9.37648 -81.54610 39000 ft 437 kts 266°
2026-04-22 15:15 9.37327 -81.60743 39000 ft 437 kts 266°
2026-04-22 15:16 9.37006 -81.66841 38999 ft 437 kts 266°
2026-04-22 15:16 9.36682 -81.72974 38999 ft 436 kts 266°
2026-04-22 15:17 9.36359 -81.79090 38999 ft 436 kts 266°
2026-04-22 15:17 9.36033 -81.85219 38999 ft 436 kts 266°
2026-04-22 15:18 9.35709 -81.91303 38999 ft 436 kts 266°
2026-04-22 15:18 9.35380 -81.97462 38999 ft 437 kts 266°
2026-04-22 15:19 9.35054 -82.03548 38999 ft 437 kts 266°
2026-04-22 15:19 9.34723 -82.09696 38999 ft 437 kts 266°
2026-04-22 15:20 9.34394 -82.15798 38999 ft 437 kts 266°
2026-04-22 15:20 9.34060 -82.21956 39000 ft 437 kts 266°
2026-04-22 15:21 9.34801 -82.27937 39009 ft 438 kts 287°
2026-04-22 15:21 9.36715 -82.33786 39000 ft 439 kts 288°
2026-04-22 15:22 9.38642 -82.39658 39000 ft 440 kts 288°
2026-04-22 15:22 9.40561 -82.45507 39000 ft 440 kts 288°
2026-04-22 15:23 9.42490 -82.51390 39000 ft 440 kts 288°
2026-04-22 15:23 9.44392 -82.57198 39000 ft 440 kts 288°
2026-04-22 15:24 9.46312 -82.63060 39002 ft 439 kts 288°
2026-04-22 15:24 9.48212 -82.68864 39005 ft 438 kts 288°
2026-04-22 15:25 9.50128 -82.74724 39013 ft 438 kts 288°
2026-04-22 15:25 9.52027 -82.80532 39024 ft 438 kts 288°
2026-04-22 15:26 9.53874 -82.86360 39022 ft 439 kts 282°
2026-04-22 15:26 9.54006 -82.89377 39050 ft 437 kts 267°
2026-04-22 15:26 9.53888 -82.92471 39044 ft 437 kts 267°
2026-04-22 15:27 9.53634 -82.98574 39048 ft 438 kts 268°
2026-04-22 15:27 9.53372 -83.04719 39054 ft 437 kts 268°
2026-04-22 15:28 9.53110 -83.10815 39054 ft 435 kts 268°
2026-04-22 15:28 9.52846 -83.16891 39054 ft 432 kts 268°
2026-04-22 15:29 9.52581 -83.22949 39054 ft 431 kts 268°
2026-04-22 15:30 9.52182 -83.32013 39055 ft 432 kts 268°
2026-04-22 15:30 9.51913 -83.38109 39055 ft 433 kts 268°
2026-04-22 15:31 9.51642 -83.44205 39055 ft 435 kts 268°
2026-04-22 15:31 9.51370 -83.50314 39055 ft 436 kts 268°
2026-04-22 15:32 9.51097 -83.56409 39067 ft 435 kts 268°
2026-04-22 15:32 9.50823 -83.62505 39095 ft 433 kts 268°
2026-04-22 15:33 9.50549 -83.68580 39122 ft 432 kts 267°
2026-04-22 15:33 9.50275 -83.74640 39150 ft 431 kts 267°
2026-04-22 15:34 9.49999 -83.80714 39164 ft 433 kts 267°
2026-04-22 15:34 9.49723 -83.86781 39164 ft 435 kts 268°
2026-04-22 15:35 9.49490 -83.91858 39164 ft 436 kts 268°
2026-04-22 15:35 9.49161 -83.99029 39164 ft 436 kts 268°
2026-04-22 15:36 9.48879 -84.05148 39164 ft 435 kts 268°
2026-04-22 15:36 9.48739 -84.08173 39012 ft 439 kts 268°
2026-04-22 15:36 9.48597 -84.11233 38530 ft 431 kts 268°
2026-04-22 15:36 9.48458 -84.14216 38063 ft 422 kts 268°
2026-04-22 15:37 9.48323 -84.17131 37606 ft 413 kts 268°
2026-04-22 15:37 9.48188 -84.20017 37153 ft 404 kts 268°
2026-04-22 15:37 9.48058 -84.22804 36716 ft 396 kts 268°
2026-04-22 15:37 9.47929 -84.25568 36283 ft 389 kts 268°
2026-04-22 15:38 9.47802 -84.28273 35858 ft 382 kts 268°
2026-04-22 15:38 9.47556 -84.33522 35033 ft 369 kts 268°
2026-04-22 15:38 9.47435 -84.36083 34631 ft 363 kts 268°
2026-04-22 15:39 9.47315 -84.38626 34232 ft 358 kts 268°
2026-04-22 15:39 9.47198 -84.41107 33843 ft 352 kts 268°
2026-04-22 15:39 9.47082 -84.43572 33455 ft 347 kts 268°
2026-04-22 15:39 9.46968 -84.45980 33077 ft 343 kts 268°
2026-04-22 15:40 9.46855 -84.48364 32703 ft 338 kts 268°
2026-04-22 15:40 9.46742 -84.50732 32331 ft 334 kts 268°
2026-04-22 15:40 9.46632 -84.53059 31966 ft 330 kts 268°
2026-04-22 15:40 9.46522 -84.55353 31605 ft 326 kts 268°
2026-04-22 15:41 9.46414 -84.57639 31246 ft 323 kts 268°
2026-04-22 15:41 9.46306 -84.59895 30892 ft 319 kts 268°
2026-04-22 15:41 9.46200 -84.62106 30545 ft 316 kts 268°
2026-04-22 15:41 9.46094 -84.64322 30197 ft 313 kts 268°
2026-04-22 15:42 9.45990 -84.66491 29855 ft 310 kts 267°
2026-04-22 15:42 9.45886 -84.68662 29513 ft 307 kts 267°
2026-04-22 15:42 9.45784 -84.70789 29179 ft 304 kts 267°
2026-04-22 15:42 9.45681 -84.72926 28843 ft 302 kts 267°
2026-04-22 15:43 9.45579 -84.75044 28510 ft 299 kts 267°
2026-04-22 15:43 9.45478 -84.77128 28182 ft 296 kts 267°
2026-04-22 15:43 9.45379 -84.79182 27859 ft 294 kts 267°
2026-04-22 15:43 9.45279 -84.81257 27533 ft 291 kts 267°
2026-04-22 15:44 9.45181 -84.83283 27213 ft 287 kts 267°
2026-04-22 15:44 9.45083 -84.85289 26898 ft 284 kts 267°
2026-04-22 15:44 9.44987 -84.87274 26587 ft 282 kts 267°
2026-04-22 15:44 9.44892 -84.89230 26279 ft 280 kts 268°
2026-04-22 15:45 9.44797 -84.91192 25971 ft 278 kts 268°
2026-04-22 15:45 9.44703 -84.93124 25668 ft 276 kts 268°
2026-04-22 15:45 9.44608 -84.95064 25363 ft 274 kts 268°
2026-04-22 15:45 9.44515 -84.96970 25063 ft 272 kts 268°
2026-04-22 15:46 9.44421 -84.98883 24763 ft 270 kts 268°
2026-04-22 15:46 9.44330 -85.00757 24469 ft 269 kts 268°
2026-04-22 15:46 9.44238 -85.02642 24173 ft 267 kts 268°
2026-04-22 15:46 9.44146 -85.04511 23880 ft 265 kts 268°
2026-04-22 15:47 9.44055 -85.06368 23589 ft 262 kts 268°
2026-04-22 15:47 9.43966 -85.08192 23302 ft 260 kts 268°
2026-04-22 15:47 9.43877 -85.10004 23019 ft 257 kts 268°
2026-04-22 15:47 9.43787 -85.11821 22734 ft 255 kts 267°
2026-04-22 15:48 9.43700 -85.13593 22456 ft 253 kts 267°
2026-04-22 15:48 9.43613 -85.15366 22179 ft 251 kts 267°
2026-04-22 15:48 9.43527 -85.17114 21905 ft 249 kts 267°
2026-04-22 15:48 9.43441 -85.18864 21632 ft 247 kts 267°
2026-04-22 15:49 9.43660 -85.20547 21329 ft 243 kts 298°
2026-04-22 15:49 9.44809 -85.21717 21082 ft 235 kts 334°
2026-04-22 15:49 9.46235 -85.22489 20807 ft 234 kts 334°
2026-04-22 15:49 9.47676 -85.23267 20532 ft 233 kts 334°
2026-04-22 15:50 9.49093 -85.24023 20267 ft 232 kts 334°
2026-04-22 15:50 9.50513 -85.24776 20006 ft 232 kts 334°
2026-04-22 15:50 9.51956 -85.25533 19745 ft 234 kts 334°
2026-04-22 15:50 9.53414 -85.26297 19482 ft 236 kts 335°
2026-04-22 15:51 9.54869 -85.27056 19220 ft 238 kts 335°
2026-04-22 15:51 9.56346 -85.27824 18955 ft 240 kts 335°
2026-04-22 15:51 9.57817 -85.28590 18691 ft 242 kts 335°
2026-04-22 15:51 9.59328 -85.29373 18421 ft 243 kts 335°
2026-04-22 15:52 9.60823 -85.30148 18153 ft 245 kts 335°
2026-04-22 15:52 9.62353 -85.30942 17879 ft 246 kts 335°
2026-04-22 15:52 9.63866 -85.31724 17609 ft 247 kts 335°
2026-04-22 15:52 9.65391 -85.32515 17336 ft 248 kts 335°
2026-04-22 15:53 9.66936 -85.33315 17059 ft 249 kts 335°
2026-04-22 15:53 9.68484 -85.34116 16783 ft 250 kts 335°
2026-04-22 15:53 9.70025 -85.34914 16507 ft 251 kts 335°
2026-04-22 15:53 9.71589 -85.35724 16227 ft 252 kts 335°
2026-04-22 15:54 9.73132 -85.36523 15951 ft 252 kts 335°
2026-04-22 15:54 9.74706 -85.37337 15670 ft 253 kts 335°
2026-04-22 15:54 9.76257 -85.38141 15393 ft 253 kts 335°
2026-04-22 15:54 9.77803 -85.38941 15116 ft 254 kts 335°
2026-04-22 15:55 9.79393 -85.39765 14832 ft 254 kts 335°
2026-04-22 15:55 9.80946 -85.40569 14555 ft 254 kts 335°
2026-04-22 15:55 9.82523 -85.41386 14273 ft 254 kts 335°
2026-04-22 15:55 9.84092 -85.42199 13992 ft 254 kts 334°
2026-04-22 15:56 9.85656 -85.43009 13713 ft 254 kts 334°
2026-04-22 15:56 9.87247 -85.43833 13428 ft 254 kts 334°
2026-04-22 15:56 9.88801 -85.44639 13150 ft 254 kts 334°
2026-04-22 15:56 9.90378 -85.45456 12869 ft 254 kts 334°
2026-04-22 15:57 9.91950 -85.46272 12588 ft 254 kts 334°
2026-04-22 15:57 9.93526 -85.47088 12306 ft 254 kts 334°
2026-04-22 15:57 9.95074 -85.47890 12029 ft 253 kts 334°
2026-04-22 15:57 9.96654 -85.48710 11747 ft 253 kts 334°
2026-04-22 15:58 9.98211 -85.49517 11468 ft 253 kts 334°
2026-04-22 15:58 9.99759 -85.50320 11191 ft 252 kts 334°
2026-04-22 15:58 10.01322 -85.51131 10911 ft 251 kts 334°
2026-04-22 15:58 10.02852 -85.51924 10635 ft 246 kts 334°
2026-04-22 15:59 10.04349 -85.52705 10388 ft 240 kts 332°
2026-04-22 15:59 10.05709 -85.53627 10338 ft 229 kts 327°
2026-04-22 15:59 10.06993 -85.54521 10285 ft 224 kts 327°
2026-04-22 15:59 10.08280 -85.55423 10196 ft 225 kts 327°
2026-04-22 16:00 10.09580 -85.56337 9890 ft 227 kts 327°
2026-04-22 16:00 10.10868 -85.57245 9617 ft 225 kts 327°
2026-04-22 16:00 10.12136 -85.58141 9346 ft 224 kts 327°
2026-04-22 16:00 10.13407 -85.59041 9072 ft 223 kts 327°
2026-04-22 16:01 10.14675 -85.59941 8798 ft 221 kts 326°
2026-04-22 16:01 10.15918 -85.60826 8527 ft 220 kts 326°
2026-04-22 16:01 10.17168 -85.61716 8254 ft 219 kts 326°
2026-04-22 16:01 10.18425 -85.62613 7977 ft 219 kts 326°
2026-04-22 16:02 10.19654 -85.63490 7760 ft 215 kts 326°
2026-04-22 16:02 10.20851 -85.64344 7561 ft 211 kts 326°
2026-04-22 16:02 10.22056 -85.65204 7358 ft 208 kts 326°
2026-04-22 16:02 10.23218 -85.66033 7157 ft 205 kts 326°
2026-04-22 16:03 10.24383 -85.66865 6954 ft 202 kts 326°
2026-04-22 16:03 10.25526 -85.67680 6752 ft 200 kts 326°
2026-04-22 16:03 10.26647 -85.68480 6553 ft 198 kts 326°
2026-04-22 16:03 10.27762 -85.69276 6352 ft 196 kts 326°
2026-04-22 16:04 10.28880 -85.70075 6150 ft 195 kts 326°
2026-04-22 16:04 10.29975 -85.70857 6032 ft 188 kts 326°
2026-04-22 16:04 10.31018 -85.71602 6019 ft 185 kts 326°
2026-04-22 16:04 10.32082 -85.72362 6005 ft 188 kts 326°
2026-04-22 16:05 10.33162 -85.73133 6000 ft 190 kts 326°
2026-04-22 16:05 10.34248 -85.73908 6000 ft 192 kts 326°
2026-04-22 16:05 10.35352 -85.74698 6000 ft 194 kts 326°
2026-04-22 16:05 10.36445 -85.75478 5998 ft 196 kts 326°
2026-04-22 16:06 10.37589 -85.76295 5937 ft 201 kts 326°
2026-04-22 16:06 10.38734 -85.77114 5928 ft 202 kts 326°
2026-04-22 16:06 10.39889 -85.77939 5927 ft 204 kts 326°
2026-04-22 16:06 10.41052 -85.78770 5927 ft 205 kts 326°
2026-04-22 16:07 10.42210 -85.79597 5927 ft 205 kts 326°
2026-04-22 16:07 10.43368 -85.80426 5927 ft 206 kts 326°
2026-04-22 16:07 10.44561 -85.81279 5927 ft 207 kts 326°
2026-04-22 16:07 10.45740 -85.82121 5927 ft 208 kts 326°
2026-04-22 16:08 10.46916 -85.82962 5927 ft 208 kts 326°
2026-04-22 16:08 10.48241 -85.83413 5934 ft 204 kts
2026-04-22 16:08 10.49472 -85.82767 5938 ft 202 kts 51°
2026-04-22 16:08 10.49954 -85.81456 5941 ft 202 kts 76°
2026-04-22 16:09 10.50321 -85.80070 5929 ft 203 kts 73°
2026-04-22 16:09 10.50746 -85.78678 5815 ft 210 kts 71°
2026-04-22 16:09 10.51217 -85.77245 5624 ft 219 kts 70°
2026-04-22 16:09 10.51712 -85.75798 5424 ft 216 kts 70°
2026-04-22 16:10 10.52210 -85.74374 5222 ft 212 kts 70°
2026-04-22 16:10 10.52704 -85.72975 5019 ft 209 kts 70°
2026-04-22 16:10 10.53192 -85.71606 4846 ft 203 kts 69°
2026-04-22 16:10 10.53664 -85.70286 4644 ft 197 kts 69°
2026-04-22 16:11 10.54128 -85.68987 4382 ft 195 kts 69°
2026-04-22 16:11 10.54595 -85.67686 4037 ft 198 kts 69°
2026-04-22 16:11 10.55075 -85.66347 3633 ft 205 kts 69°
2026-04-22 16:11 10.55559 -85.64995 3266 ft 208 kts 69°
2026-04-22 16:12 10.56061 -85.63595 2978 ft 208 kts 69°
2026-04-22 16:12 10.56542 -85.62254 2929 ft 197 kts 69°
2026-04-22 16:12 10.56998 -85.60980 2669 ft 200 kts 69°
2026-04-22 16:12 10.57470 -85.59664 2100 ft 196 kts 70°
2026-04-22 16:13 10.57927 -85.58391 1546 ft 190 kts 70°
2026-04-22 16:13 10.58370 -85.57155 1005 ft 186 kts 70°
2026-04-22 16:13 10.58784 -85.55999 611 ft 165 kts 70°
2026-04-22 16:13 10.59158 -85.54958 288 ft 145 kts 70°
2026-04-22 16:14 10.59475 -85.54079 274 ft 119 kts 69°
2026-04-22 16:14 10.59700 -85.53437 274 ft 67 kts 74°
2026-04-22 16:14 10.59766 -85.53292 274 ft 5 kts 348°
2026-04-22 16:14 10.59803 -85.53301 273 ft 4 kts 345°
2026-04-22 16:15 10.59833 -85.53310 274 ft 3 kts 341°
2026-04-22 16:15 10.59857 -85.53318 273 ft 3 kts 340°
2026-04-22 16:15 10.59892 -85.53332 274 ft 6 kts 339°
2026-04-22 16:15 10.59944 -85.53355 273 ft 9 kts 318°
2026-04-22 16:16 10.60005 -85.53388 273 ft 10 kts 341°
2026-04-22 16:16 10.60046 -85.53403 273 ft 1 kts 339°
2026-04-22 16:16 10.60047 -85.53404 273 ft 0 kts 339°